« Back
NWS Peachtree City, Ga » Text Product » GA Regional Weather Roundup


Printer-friendly Version
Current Version              Previous Versions:   1  2  3  4  5  6  7  8  9  

Regional Weather Roundup

104
ASUS42 KFFC 191403
RWRGA
WEATHER ROUNDUP FOR GEORGIA
NATIONAL WEATHER SERVICE PEACHTREE CITY GA
1000 AM EDT SUN APR 19 2015

NOTE: "FAIR" INDICATES FEW OR NO CLOUDS BELOW 12,000 FEET WITH NO
SIGNIFICANT WEATHER AND/OR OBSTRUCTIONS TO VISIBILITY.

* = USE WITH CAUTION. THE STATIONS MARKED WITH AN ASTERISK MAY NOT
REPORT WEATHER SUCH AS PRECIPITATION, FOG, OR THUNDER AND ARE NOT
QUALITY CONTROLLED BY NWS.

THE REMARK "TC" DENOTES TEMPERATURE READING IN DEGREES CELSIUS.

GAZ001>058-191500-
NORTH GEORGIA

CITY           SKY/WX    TMP DP  RH WIND       PRES   REMARKS
ATLANTA        CLOUDY    69  66  90 S10       29.81F
ATHENS         CLOUDY    68  67  96 VRB6      29.85F FOG
CHAMBLEE       CLOUDY    68  67  96 SE7       29.81F
PEACHTREE CITY LGT RAIN  68  67  96 SE7       29.82F FOG
ROME           CLOUDY    69  67  93 SE7       29.77F
WEST ATLANTA   CLOUDY    69  66  90 S5        29.81S
GAINESVILLE    LGT RAIN  66  65  96 SE7       29.87F
CARTERSVILLE   CLOUDY    69  65  86 SE6       29.79F


CITY           SKY/WX    TMP DP  RH WIND       PRES   REMARKS
DALTON*        RAIN      66  66 100 SE7       29.78F
LAWRENCEVILLE* CLOUDY    66  63  88 S6        29.84F FOG
MARIETTA       LGT RAIN  67  67  99 SW8       29.81F FOG
BLAIRSVILLE*   LGT RAIN  64  58  81 CALM      29.85F
$$

GAZ059>098-102>109-191500-
CENTRAL GEORGIA

CITY           SKY/WX    TMP DP  RH WIND       PRES   REMARKS
AUGUSTA-BUSH   CLOUDY    69  68  96 SE6       29.87F FOG
AUGUSTA-DANIEL LGT RAIN  69  67  93 E8        29.88F FOG
COLUMBUS       LGT RAIN  69  68  96 SE7       29.79F FOG
MACON          CLOUDY    72  69  90 VRB6      29.85S FOG
ROBINS AFB     CLOUDY    73  70  88 S7        29.85R


CITY           SKY/WX    TMP DP  RH WIND       PRES   REMARKS
LAGRANGE*      CLOUDY    73  72  96 S7        29.80F THUNDER
SYLVANIA*      CLOUDY    70  70 100 SE5       29.88F
MILLEDGEVILLE* CLOUDY    70  70 100 CALM      29.85S
$$

GAZ099>101-110>166-191500-
SOUTH GEORGIA

CITY           SKY/WX    TMP DP  RH WIND       PRES   REMARKS
SAVANNAH       CLOUDY    73  70  90 SE9       29.89F FOG
VALDOSTA       MOSUNNY   75  72  90 S12       29.87F
ALMA           MOSUNNY   75  69  81 SE7       29.85F
ST SIMONS      CLOUDY    73  71  93 SE9       29.87F
FT STEWART     CLOUDY    73  72  94 E9        29.84F
ALBANY         PTSUNNY   75  71  87 SE13      29.85F
HUNTER AFB     CLOUDY    72  72 100 E7        29.87F
MOODY AFB      MOSUNNY   76  72  87 SE8       29.86F
BRUNSWICK      CLOUDY    73  70  88 SE7       29.88S


CITY           SKY/WX    TMP DP  RH WIND       PRES   REMARKS
BAINBRIDGE*    PTSUNNY   79  73  83 S13G18    29.83R
MOULTRIE*      MOSUNNY   73 N/A N/A SE9       29.87S
VIDALIA*       CLOUDY    72  72 100 S5        29.86R
WAYCROSS*      CLOUDY    77  75  94 S8        29.85
DOUGLAS*       PTSUNNY   75  70  83 SW8       29.91R
$$



USA.gov is the U.S. government's official web portal to all federal, state and local government web resources and services.